Weather History for Buffalo, MN

Change the Weather History Date:

Tuesday, March 5, 2013

  Actual Average (KSTC) Record (KSTC)
Temperature  
Mean Temperature 25 °F 24 °F  
Max Temperature 30 °F 34 °F 66 °F (2000)
Min Temperature 20 °F 15 °F -17 °F (2003)
Degree Days  
Heating Degree Days 40 41  
Month to date heating degree days 208  
Since 1 July heating degree days 6654  
Cooling Degree Days 0 0  
Month to date cooling degree days 0  
Year to date cooling degree days 0  
Moisture  
Dew Point 22 °F    
Average Humidity 88    
Maximum Humidity 96    
Minimum Humidity 71    
Precipitation  
Precipitation 0.17 in 0.04 in 0.56 in (1896)
Month to date precipitation 0.18  
Year to date precipitation 1.42  
Snow  
Snow 0.00 in 0.30 in 6.00 in (1908)
Month to date snowfall 1.7  
Since 1 July snowfall 35.9  
Snow Depth -    
Sea Level Pressure  
Sea Level Pressure 30.11 in    
Wind  
Wind Speed 7 mph (NNE)    
Max Wind Speed 10 mph    
Max Gust Speed 17 mph    
Visibility 6 miles    
Events Snow    
T = Trace of Precipitation, MM = Missing Value Source: NWS Daily Summary

Daily Weather History Graph

Daily Weather History Graph

Search for Another Location

Airport:

Trip Planner

Search our weather history database for the weather conditions in past years. The results will help you decide how hot, cold, wet, or windy it might be!

Date:

Astronomy

Mar. 05, 2013 Rise Set
Actual Time 6:45 AM CST 6:08 PM CST
Civil Twilight 6:16 AM CST 6:37 PM CST
Nautical Twilight 5:42 AM CST 7:12 PM CST
Astronomical Twilight 5:08 AM CST 7:46 PM CST
Moon 2:10 AM CST (3/5) 11:36 AM CST (3/5)
Length of Visible Light 12h 21m
Length of Day
11h 22m
Last Quarter, 40% of the Moon is Illuminated
Mar 5
Last Quarter
Mar 11
New
Mar 19
First Quarter
Mar 27
Full
Apr 2
Last Quarter

Hourly Weather History & Observations

Time (CST) Temp. Windchill Dew Point Humidity Pressure Visibility Wind Dir Wind Speed Gust Speed Precip Events Conditions
12:35 AM 24.3 °F 16.3 °F 22.8 °F 94% 29.98 in 1.5 mi East 6.9 mph - 0.02 in Snow Light Snow
12:55 AM 24.3 °F 17.3 °F 22.8 °F 94% 29.98 in 1.0 mi East 5.8 mph - 0.02 in Snow Snow
1:14 AM 24.3 °F 17.3 °F 23.0 °F 95% 29.98 in 1.2 mi East 5.8 mph - 0.01 in Snow Snow
1:35 AM 24.3 °F 17.3 °F 23.0 °F 95% 29.98 in 1.5 mi East 5.8 mph - 0.02 in Snow Light Snow
1:54 AM 24.3 °F 18.4 °F 23.0 °F 95% 29.98 in 1.2 mi East 4.6 mph - 0.02 in Snow Snow
2:14 AM 24.3 °F 16.3 °F 23.0 °F 95% 29.98 in 0.8 mi East 6.9 mph - 0.01 in Snow Snow
2:35 AM 24.3 °F 16.3 °F 23.4 °F 96% 29.97 in 1.0 mi ENE 6.9 mph - 0.02 in Snow Snow
2:54 AM 24.3 °F 16.3 °F 23.2 °F 96% 29.97 in 1.2 mi ENE 6.9 mph - 0.03 in Snow Light Snow
3:14 AM 24.3 °F 17.3 °F 23.0 °F 95% 29.97 in 1.2 mi East 5.8 mph - 0.01 in Snow Light Snow
3:35 AM 24.1 °F 16.0 °F 23.0 °F 96% 29.97 in 1.2 mi ENE 6.9 mph - 0.01 in Snow Light Snow
3:54 AM 23.9 °F 15.8 °F 23.0 °F 96% 29.97 in 1.5 mi ENE 6.9 mph - 0.01 in Snow Light Snow
4:14 AM 23.9 °F 15.8 °F 23.0 °F 96% 29.96 in 1.5 mi ENE 6.9 mph - N/A Snow Light Snow
5:15 AM 23.9 °F 15.8 °F 22.8 °F 96% 29.98 in 1.5 mi ENE 6.9 mph - 0.01 in Snow Light Snow
5:35 AM 23.9 °F 15.8 °F 22.6 °F 95% 29.98 in 1.2 mi NE 6.9 mph - 0.01 in Snow Light Snow
6:15 AM 23.7 °F 15.6 °F 22.3 °F 94% 29.99 in 1.5 mi NE 6.9 mph - 0.01 in Snow Light Snow
6:54 AM 23.7 °F 15.6 °F 22.3 °F 94% 29.99 in 1.5 mi NE 6.9 mph - 0.02 in Snow Light Snow
7:15 AM 23.7 °F 16.6 °F 22.1 °F 94% 30.00 in 1.2 mi NE 5.8 mph - N/A Snow Light Snow
7:35 AM 23.7 °F 15.6 °F 22.1 °F 94% 30.01 in 1.5 mi NE 6.9 mph - N/A Snow Light Snow
7:54 AM 23.7 °F 15.6 °F 22.1 °F 94% 30.01 in 1.5 mi NNE 6.9 mph - N/A Snow Light Snow
8:15 AM 23.7 °F 15.6 °F 22.1 °F 94% 30.02 in 2.0 mi NNE 6.9 mph - N/A Snow Light Snow
8:35 AM 23.9 °F 16.8 °F 22.1 °F 93% 30.03 in 1.5 mi NNE 5.8 mph - N/A Snow Light Snow
8:54 AM 23.9 °F 15.8 °F 22.1 °F 93% 30.03 in 1.8 mi NNE 6.9 mph - 0.01 in   Overcast
9:15 AM 24.6 °F 16.7 °F 22.3 °F 91% 30.04 in 2.5 mi North 6.9 mph - 0.01 in Snow Light Snow
9:35 AM 24.8 °F 16.1 °F 22.5 °F 91% 30.04 in 2.0 mi NNE 8.1 mph - 0.01 in Snow Light Snow
9:54 AM 24.8 °F 16.1 °F 22.5 °F 91% 30.05 in 1.8 mi NNE 8.1 mph - 0.02 in Snow Light Snow
10:15 AM 25.3 °F 16.7 °F 22.6 °F 89% 30.06 in 1.5 mi NNE 8.1 mph - N/A Snow Light Snow
10:34 AM 25.3 °F 15.3 °F 22.6 °F 89% 30.06 in 1.2 mi North 10.4 mph - N/A Snow Light Snow
10:54 AM 25.5 °F 16.2 °F 22.6 °F 89% 30.08 in 1.2 mi NNE 9.2 mph - 0.01 in Snow Light Snow
11:15 AM 25.7 °F 19.0 °F 22.6 °F 88% 30.08 in 2.0 mi NNE 5.8 mph - N/A Snow Light Snow
11:34 AM 26.2 °F 17.8 °F 22.8 °F 87% 30.08 in 1.8 mi NNE 8.1 mph - N/A Snow Light Snow
11:54 AM 27.0 °F 20.5 °F 23.4 °F 86% 30.09 in 1.5 mi North 5.8 mph - 0.01 in Snow Light Snow
12:15 PM 27.5 °F 19.3 °F 23.4 °F 84% 30.08 in 2.5 mi North 8.1 mph - N/A Snow Light Snow
12:34 PM 28.0 °F 20.0 °F 23.4 °F 83% 30.09 in 4.0 mi North 8.1 mph - N/A   Haze
12:54 PM 28.4 °F 19.7 °F 23.5 °F 82% 30.09 in 5.0 mi North 9.2 mph - 0.01 in   Haze
1:15 PM 29.1 °F 20.6 °F 23.7 °F 80% 30.09 in 7.0 mi NNE 9.2 mph - N/A   Mostly Cloudy
1:34 PM 29.3 °F 23.2 °F 23.9 °F 80% 30.09 in 5.0 mi North 5.8 mph - N/A   Haze
1:54 PM 30.0 °F 22.4 °F 24.3 °F 79% 30.09 in 7.0 mi North 8.1 mph - N/A   Overcast
2:15 PM 30.2 °F 23.4 °F 23.9 °F 77% 30.11 in 10.0 mi North 6.9 mph - N/A   Mostly Cloudy
2:34 PM 30.2 °F 21.9 °F 23.4 °F 76% 30.11 in 10.0 mi North 9.2 mph - N/A   Overcast
2:54 PM 30.9 °F 22.8 °F 23.5 °F 74% 30.12 in 10.0 mi North 9.2 mph - N/A   Mostly Cloudy
3:15 PM 30.2 °F 21.3 °F 23.0 °F 75% 30.13 in 10.0 mi North 10.4 mph 17.3 mph N/A   Mostly Cloudy
3:34 PM 30.7 °F 22.6 °F 22.3 °F 71% 30.13 in 10.0 mi North 9.2 mph - N/A   Scattered Clouds
3:54 PM 29.7 °F 21.3 °F 23.7 °F 79% 30.15 in 7.0 mi North 9.2 mph - N/A   Scattered Clouds
4:15 PM 28.4 °F 19.7 °F 23.7 °F 83% 30.16 in 5.0 mi North 9.2 mph - N/A Snow Light Snow
4:34 PM 28.0 °F 20.8 °F 22.5 °F 80% 30.17 in 10.0 mi North 6.9 mph - N/A   Scattered Clouds
4:54 PM 27.9 °F 19.8 °F 22.1 °F 79% 30.18 in 10.0 mi North 8.1 mph - N/A   Mostly Cloudy
5:15 PM 27.5 °F 18.6 °F 21.9 °F 80% 30.18 in 10.0 mi North 9.2 mph - N/A   Scattered Clouds
5:34 PM 27.1 °F 18.9 °F 21.7 °F 80% 30.20 in 10.0 mi NNW 8.1 mph - N/A   Clear
5:54 PM 26.1 °F 18.4 °F 21.0 °F 81% 30.21 in 10.0 mi NNW 6.9 mph - N/A   Clear
6:15 PM 25.7 °F 19.0 °F 21.0 °F 82% 30.21 in 10.0 mi NNW 5.8 mph - N/A   Mostly Cloudy
6:34 PM 25.3 °F 19.7 °F 21.4 °F 85% 30.22 in 10.0 mi NNW 4.6 mph - N/A   Mostly Cloudy
6:54 PM 25.2 °F 19.5 °F 21.9 °F 87% 30.23 in 10.0 mi NNW 4.6 mph - N/A   Mostly Cloudy
7:15 PM 25.3 °F 18.5 °F 22.3 °F 88% 30.23 in 10.0 mi NNW 5.8 mph - N/A   Overcast
7:35 PM 24.8 °F 16.9 °F 21.9 °F 89% 30.24 in 10.0 mi NNW 6.9 mph - N/A   Mostly Cloudy
7:54 PM 23.9 °F 16.8 °F 21.6 °F 91% 30.24 in 10.0 mi North 5.8 mph - N/A   Scattered Clouds
8:15 PM 23.7 °F 17.8 °F 20.8 °F 89% 30.26 in 10.0 mi NW 4.6 mph - N/A   Clear
8:35 PM 21.9 °F 15.7 °F 19.4 °F 90% 30.27 in 10.0 mi NNW 4.6 mph - N/A   Clear
8:54 PM 21.7 °F 14.3 °F 18.9 °F 89% 30.28 in 10.0 mi NNW 5.8 mph - N/A   Clear
9:15 PM 20.7 °F 14.2 °F 18.1 °F 90% 30.28 in 10.0 mi NNW 4.6 mph - N/A   Clear
9:35 PM 20.5 °F 15.6 °F 18.5 °F 92% 30.29 in 10.0 mi NNW 3.5 mph - N/A   Mostly Cloudy
9:54 PM 22.5 °F 15.1 °F 19.9 °F 90% 30.28 in 10.0 mi NNE 5.8 mph - N/A   Overcast
10:15 PM 23.7 °F 17.8 °F 20.3 °F 87% 30.28 in 10.0 mi North 4.6 mph - N/A   Overcast
10:35 PM 23.7 °F 16.6 °F 19.9 °F 85% 30.29 in 10.0 mi North 5.8 mph - N/A   Overcast
10:54 PM 23.7 °F 19.3 °F 19.9 °F 85% 30.30 in 10.0 mi NW 3.5 mph - N/A   Overcast
11:15 PM 23.0 °F 17.0 °F 19.4 °F 86% 30.31 in 10.0 mi NW 4.6 mph - N/A   Overcast
11:34 PM 23.4 °F - 19.4 °F 85% 30.31 in 10.0 mi Calm Calm - N/A   Overcast
11:54 PM 23.5 °F 17.6 °F 19.9 °F 86% 30.31 in 10.0 mi NNW 4.6 mph - N/A   Overcast